Regional Weather Roundup
Issued by NWS

Home | Current Version | Previous Version | Text Only | Print | Product List | Glossary Off
Versions: 1 2 3 4 5 6 7 8 9 10 11 12 13 14 15 16 17 18 19 20 21 22 23 24 25 26 27 28 29 30 31 32 33 34 35 36 37 38 39 40 41 42 43 44 45 46 47 48 49 50

362
ASUS44 KMEG 231100
RWRTN
TENNESSEE HOURLY STATE WEATHER ROUNDUP
NATIONAL WEATHER SERVICE MEMPHIS TN
500 AM CST MON JAN 23 2017

TNZ002-004-019-021-049-052-054-088>092-231200-
WEST TENNESSEE

CITY           SKY/WX    TMP DP  RH WIND       PRES   REMARKS
MEMPHIS INTL   PTCLDY    44  39  82 NW14      29.70R
NWS MEMPHIS      N/A     45 N/A N/A MISG        N/A
JACKSON        CLOUDY    46  39  76 NW20G25   29.64R
DYERSBURG      CLEAR     43  36  75 N14G22    29.66R
UNION CITY     CLEAR     41  41 100 NW21      29.63R
PARIS          CLOUDY    41  36  81 NW12G23   29.59R
$$

TNZ008-025-027-028-033-062-065-066-231200-
NORTH MIDDLE TENNESSEE

CITY           SKY/WX    TMP DP  RH WIND       PRES   REMARKS
NASHVILLE      CLOUDY    53  48  83 NW24G31   29.40R
CLARKSVILLE    CLOUDY    47  42  83 NW21G26   29.51R
SMYRNA         CLOUDY    54  50  86 NW26G33   29.39R
CROSSVILLE     LGT RAIN  51  49  92 NW13G24   29.26R
$$

TNZ061-075-076-078-094-096-097-231200-
SOUTH MIDDLE TENNESSEE

CITY           SKY/WX    TMP DP  RH WIND       PRES   REMARKS
TULLAHOMA      CLOUDY    52  50  93 NW17      29.34R
WINCHESTER     CLOUDY    54  52  94 NW16      29.31R
COLUMBIA       CLOUDY    54  54 100 NW16      29.43R
SHELBYVILLE    CLOUDY    54  54 100 NW20G28   29.36R
$$

TNZ017-018-042-046-047-231200-
NORTHEAST TENNESSEE

CITY           SKY/WX    TMP DP  RH WIND       PRES   REMARKS
TRI CITIES     LGT RAIN  50  47  89 NE7       29.19R
$$

TNZ012-013-036-069-073-074-231200-
CENTRAL EAST TENNESSEE

CITY           SKY/WX    TMP DP  RH WIND       PRES   REMARKS
KNOXVILLE      CLOUDY    50  48  93 SW9       29.21S
OAK RIDGE      CLOUDY    50  47  89 CALM      29.23S
GATLINBURG     CLOUDY    48  48 100 W6        29.21R
$$

TNZ083-085-099-231200-
SOUTHEAST TENNESSEE

CITY           SKY/WX    TMP DP  RH WIND       PRES   REMARKS
CHATTANOOGA    LGT RAIN  49  47  93 CALM      29.26R
$$

SKY/WX REPORTED AS FAIR MEANS FEW OR NO CLOUDS BELOW
12 THOUSAND FEET.





USA.gov is the U.S. government's official web portal to all federal, state and local government web resources and services.